Weather History for KFOA - April, 2013

Change the Weather History Date:

Friday, April 12, 2013

  Actual Average (KEVV) Record (KEVV)
Temperature  
Mean Temperature 40 °F 55 °F  
Max Temperature 48 °F 67 °F 86 °F (1930)
Min Temperature 33 °F 43 °F 27 °F (1940)
Degree Days  
Heating Degree Days 25 11  
Month to date heating degree days 148  
Since 1 July heating degree days 4314  
Cooling Degree Days 0 1  
Month to date cooling degree days 4  
Year to date cooling degree days 7  
Moisture  
Dew Point 32 °F    
Average Humidity 69    
Maximum Humidity 93    
Minimum Humidity 56    
Precipitation  
Precipitation 0.00 in 0.13 in 2.21 in (1948)
Month to date precipitation 1.61  
Year to date precipitation 12.12  
Snow  
Snow 0.00 in 0.00 in T in (1957)
Month to date snowfall 0.1  
Since 1 July snowfall 11.8  
Snow Depth -    
Sea Level Pressure  
Sea Level Pressure 29.86 in    
Wind  
Wind Speed 11 mph (WSW)    
Max Wind Speed 20 mph    
Max Gust Speed 25 mph    
Visibility 10 miles    
Events      
T = Trace of Precipitation, MM = Missing Value Source: NWS Daily Summary

Daily Weather History Graph

Daily Weather History Graph

Search for Another Location

Airport or City:

Trip Planner

Search our weather history database for the weather conditions in past years. The results will help you decide how hot, cold, wet, or windy it might be!

Date:

Astronomy

Apr. 12, 2013 Rise Set
Actual Time 6:21 AM CDT 7:28 PM CDT
Civil Twilight 5:54 AM CDT 7:55 PM CDT
Nautical Twilight 5:21 AM CDT 8:27 PM CDT
Astronomical Twilight 4:48 AM CDT 9:01 PM CDT
Moon 7:32 AM CDT (4/12) 9:56 PM CDT (4/12)
Length of Visible Light 14h 01m
Length of Day
13h 06m
Waxing Crescent, 5% of the Moon is Illuminated
Apr 12
Waxing Crescent
Apr 18
First Quarter
Apr 25
Full
May 2
Last Quarter
May 9
New

Hourly Weather History & Observations

Time (CDT) Temp. Windchill Dew Point Humidity Pressure Visibility Wind Dir Wind Speed Gust Speed Precip Events Conditions
12:15 AM 41.4 °F 33.6 °F 32.5 °F 71% 29.75 in 10.0 mi West 15.0 mph 20.7 mph N/A   Overcast
12:35 AM 41.0 °F 34.3 °F 32.0 °F 70% 29.75 in 10.0 mi West 11.5 mph - N/A   Overcast
12:55 AM 40.3 °F 33.0 °F 30.9 °F 69% 29.75 in 10.0 mi WNW 12.7 mph - N/A   Mostly Cloudy
1:15 AM 39.2 °F 34.2 °F 30.0 °F 70% 29.76 in 10.0 mi West 6.9 mph - N/A   Scattered Clouds
1:35 AM 38.8 °F 35.4 °F 30.6 °F 72% 29.75 in 10.0 mi West 4.6 mph - N/A   Clear
1:55 AM 37.6 °F 34.0 °F 30.9 °F 77% 29.74 in 10.0 mi WSW 4.6 mph - N/A   Clear
2:15 AM 36.7 °F 32.9 °F 31.1 °F 80% 29.74 in 10.0 mi WSW 4.6 mph - N/A   Clear
2:35 AM 37.4 °F 34.9 °F 32.0 °F 81% 29.74 in 10.0 mi WSW 3.5 mph - N/A   Clear
2:55 AM 35.6 °F 30.7 °F 31.6 °F 85% 29.74 in 10.0 mi SW 5.8 mph - N/A   Clear
3:15 AM 35.1 °F 30.1 °F 31.8 °F 88% 29.73 in 10.0 mi WSW 5.8 mph - N/A   Clear
3:35 AM 35.4 °F 30.5 °F 31.3 °F 85% 29.73 in 10.0 mi SW 5.8 mph - N/A   Clear
3:55 AM 33.8 °F 28.6 °F 32.0 °F 93% 29.74 in 10.0 mi SW 5.8 mph - N/A   Scattered Clouds
4:15 AM 35.6 °F 30.7 °F 32.0 °F 87% 29.74 in 10.0 mi SSW 5.8 mph - N/A   Mostly Cloudy
4:35 AM 37.0 °F 32.4 °F 32.7 °F 84% 29.74 in 10.0 mi SW 5.8 mph - N/A   Overcast
4:55 AM 37.4 °F 33.8 °F 32.9 °F 84% 29.75 in 10.0 mi SW 4.6 mph - N/A   Overcast
5:15 AM 37.8 °F 33.3 °F 33.4 °F 84% 29.75 in 10.0 mi SW 5.8 mph - N/A   Overcast
5:35 AM 37.9 °F 33.5 °F 33.1 °F 83% 29.76 in 10.0 mi SW 5.8 mph - N/A   Overcast
5:55 AM 37.4 °F 33.8 °F 32.9 °F 84% 29.76 in 10.0 mi SSW 4.6 mph - N/A   Overcast
6:15 AM 37.8 °F 32.5 °F 33.3 °F 84% 29.76 in 10.0 mi SSW 6.9 mph - N/A   Mostly Cloudy
6:35 AM 37.0 °F 30.4 °F 32.9 °F 85% 29.77 in 10.0 mi SW 9.2 mph - N/A   Scattered Clouds
6:55 AM 37.4 °F 30.8 °F 32.7 °F 83% 29.78 in 10.0 mi SW 9.2 mph - N/A   Clear
7:15 AM 38.8 °F 32.1 °F 32.7 °F 79% 29.79 in 10.0 mi SW 10.4 mph - N/A   Clear
7:35 AM 39.6 °F 32.5 °F 33.3 °F 78% 29.79 in 10.0 mi SW 11.5 mph - N/A   Clear
7:55 AM 40.5 °F 33.2 °F 33.1 °F 75% 29.79 in 10.0 mi WSW 12.7 mph - N/A   Clear
8:15 AM 41.2 °F 33.7 °F 32.9 °F 72% 29.79 in 10.0 mi WSW 13.8 mph 18.4 mph N/A   Clear
8:35 AM 41.5 °F 34.2 °F 32.4 °F 70% 29.80 in 10.0 mi WSW 13.8 mph 20.7 mph N/A   Clear
8:55 AM 42.6 °F 35.9 °F 33.8 °F 71% 29.80 in 10.0 mi WSW 12.7 mph - N/A   Scattered Clouds
9:15 AM 42.4 °F 34.7 °F 32.9 °F 69% 29.80 in 10.0 mi SW 16.1 mph 19.6 mph N/A   Mostly Cloudy
9:35 AM 42.8 °F 35.1 °F 32.0 °F 66% 29.80 in 10.0 mi WSW 16.1 mph 20.7 mph N/A   Mostly Cloudy
9:55 AM 43.9 °F 36.8 °F 32.7 °F 65% 29.80 in 10.0 mi WSW 15.0 mph - N/A   Mostly Cloudy
10:15 AM 43.3 °F 36.5 °F 32.0 °F 64% 29.81 in 10.0 mi WSW 13.8 mph 17.3 mph N/A   Overcast
10:35 AM 43.7 °F 36.9 °F 31.8 °F 63% 29.82 in 10.0 mi West 13.8 mph 19.6 mph N/A   Overcast
10:55 AM 43.3 °F 36.1 °F 31.6 °F 63% 29.83 in 10.0 mi WSW 15.0 mph 21.9 mph N/A   Overcast
11:15 AM 44.2 °F 37.0 °F 32.0 °F 62% 29.83 in 10.0 mi West 16.1 mph 20.7 mph N/A   Overcast
11:35 AM 44.1 °F 37.7 °F 32.0 °F 63% 29.84 in 10.0 mi WSW 12.7 mph - N/A   Overcast
11:55 AM 44.2 °F 37.3 °F 32.0 °F 62% 29.84 in 10.0 mi WSW 15.0 mph 19.6 mph N/A   Overcast
12:15 PM 44.8 °F 38.3 °F 32.5 °F 62% 29.85 in 10.0 mi West 13.8 mph 23.0 mph N/A   Overcast
12:35 PM 45.1 °F 37.9 °F 33.1 °F 63% 29.85 in 10.0 mi WSW 17.3 mph - N/A   Overcast
12:55 PM 45.7 °F 38.0 °F 32.2 °F 59% 29.86 in 10.0 mi West 19.6 mph 24.2 mph N/A   Overcast
1:15 PM 45.1 °F 37.9 °F 32.4 °F 61% 29.86 in 10.0 mi WSW 17.3 mph - N/A   Overcast
1:35 PM 45.9 °F 38.8 °F 32.2 °F 59% 29.87 in 10.0 mi West 17.3 mph 23.0 mph N/A   Overcast
1:55 PM 46.6 °F - 32.9 °F 59% 29.87 in 10.0 mi West 17.3 mph 20.7 mph N/A   Mostly Cloudy
2:15 PM 47.5 °F - 32.9 °F 57% 29.88 in 10.0 mi WSW 15.0 mph 20.7 mph N/A   Mostly Cloudy
2:35 PM 46.4 °F 39.5 °F 32.4 °F 58% 29.88 in 10.0 mi West 17.3 mph 24.2 mph N/A   Overcast
2:55 PM 47.5 °F - 32.4 °F 56% 29.89 in 10.0 mi West 17.3 mph 24.2 mph N/A   Overcast
3:15 PM 46.6 °F - 31.8 °F 56% 29.89 in 10.0 mi West 17.3 mph 24.2 mph N/A   Overcast
3:35 PM 46.9 °F - 32.2 °F 57% 29.90 in 10.0 mi West 15.0 mph 20.7 mph N/A   Overcast
3:55 PM 47.5 °F - 32.4 °F 56% 29.90 in 10.0 mi West 16.1 mph 21.9 mph N/A   Overcast
4:15 PM 47.3 °F - 32.5 °F 57% 29.91 in 10.0 mi West 16.1 mph - N/A   Overcast
4:35 PM 46.2 °F 39.8 °F 31.8 °F 57% 29.92 in 10.0 mi West 15.0 mph 25.3 mph N/A   Mostly Cloudy
4:55 PM 45.7 °F 39.5 °F 32.0 °F 59% 29.92 in 10.0 mi West 13.8 mph - N/A   Overcast
5:15 PM 45.1 °F 38.4 °F 31.6 °F 59% 29.94 in 10.0 mi West 15.0 mph 21.9 mph N/A   Overcast
5:35 PM 45.0 °F 38.9 °F 32.0 °F 60% 29.93 in 10.0 mi WNW 12.7 mph - N/A   Overcast
5:55 PM 45.0 °F 37.9 °F 32.0 °F 60% 29.94 in 10.0 mi WNW 16.1 mph 20.7 mph N/A   Overcast
6:15 PM 44.2 °F 38.4 °F 32.0 °F 62% 29.94 in 10.0 mi NW 11.5 mph - N/A   Overcast
6:35 PM 44.1 °F 36.8 °F 31.8 °F 62% 29.95 in 10.0 mi NW 16.1 mph 19.6 mph N/A   Overcast
6:55 PM 43.7 °F 37.3 °F 31.8 °F 63% 29.95 in 10.0 mi WNW 12.7 mph 19.6 mph N/A   Overcast
7:15 PM 43.3 °F 37.7 °F 32.0 °F 64% 29.96 in 10.0 mi WNW 10.4 mph - N/A   Overcast
7:35 PM 43.3 °F 36.8 °F 32.0 °F 64% 29.96 in 10.0 mi West 12.7 mph 17.3 mph N/A   Overcast
7:55 PM 43.2 °F 37.9 °F 31.8 °F 64% 29.96 in 10.0 mi WNW 9.2 mph - N/A   Overcast
8:15 PM 43.2 °F 37.9 °F 31.8 °F 64% 29.97 in 10.0 mi West 9.2 mph - N/A   Overcast
8:35 PM 43.2 °F 38.4 °F 32.0 °F 65% 29.98 in 10.0 mi West 8.1 mph - N/A   Overcast
8:55 PM 43.2 °F 38.4 °F 32.2 °F 65% 29.99 in 10.0 mi West 8.1 mph - N/A   Overcast
9:15 PM 43.0 °F 38.8 °F 32.5 °F 67% 29.99 in 10.0 mi West 6.9 mph - N/A   Overcast
9:35 PM 43.0 °F 38.8 °F 32.9 °F 68% 29.99 in 10.0 mi West 6.9 mph - N/A   Overcast
9:55 PM 43.0 °F 38.8 °F 32.5 °F 67% 29.99 in 10.0 mi West 6.9 mph - N/A   Overcast
10:15 PM 43.0 °F 38.8 °F 32.9 °F 68% 30.00 in 10.0 mi West 6.9 mph - N/A   Overcast
10:35 PM 43.0 °F 37.7 °F 32.5 °F 67% 30.00 in 10.0 mi West 9.2 mph - N/A   Overcast
10:55 PM 42.8 °F 39.3 °F 33.4 °F 70% 30.00 in 10.0 mi WSW 5.8 mph - N/A   Overcast
11:15 PM 42.4 °F 38.1 °F 33.6 °F 71% 30.01 in 10.0 mi WSW 6.9 mph - N/A   Overcast
11:35 PM 42.8 °F 38.6 °F 33.3 °F 69% 30.01 in 10.0 mi West 6.9 mph - N/A   Overcast
11:55 PM 42.8 °F 37.5 °F 32.7 °F 68% 30.02 in 10.0 mi West 9.2 mph - N/A   Overcast